Retour au catalogue

STARLINK-34701

ActifCommunicationsSSO
NORAD 64953·PAYLOAD·🇺🇸 United States

Lancé Jul 26, 2025 depuis Vandenberg Space Force Base

Loading…

Prochains Passages (prochaines 24 heures)

TLE

FraisSource: CelesTrak SupGP

Époque: Sep 14, 2026, 21:12 UTC

1 64953C 25158X   26257.88381944 -.00005688  00000+0 -17663-3 0  2576
2 64953  97.2844 116.2558 0001482  89.3053 298.6984 15.33432693    10

Suivez STARLINK-34701 en temps réel avec AllMySat

Download on the App Store